Weather History for Turaif, Saudi Arabia

Change the Weather History Date:

Tuesday, February 5, 2013

  Actual Average Record
Temperature  
Mean Temperature 54 °F -  
Max Temperature 67 °F 59 °F 71 °F (2009)
Min Temperature 41 °F 37 °F 26 °F (2008)
Degree Days  
Heating Degree Days 11    
Growing Degree Days 4 (Base 50)    
Moisture  
Dew Point 34 °F    
Average Humidity 48    
Maximum Humidity 81    
Minimum Humidity 16    
Precipitation  
Precipitation 0.00 in - - ()
Sea Level Pressure  
Sea Level Pressure 30.11 in    
Wind  
Wind Speed 12 mph ()    
Max Wind Speed 17 mph    
Max Gust Speed -    
Visibility 6.0 miles    
Events      
Averages and records for this station are not official NWS values.
T = Trace of Precipitation, MM = Missing Value Source: Averaged Metar Reports

Daily Weather History Graph

Daily Weather History Graph

Search for Another Location

Airport:

Trip Planner

Search our weather history database for the weather conditions in past years. The results will help you decide how hot, cold, wet, or windy it might be!

Date:

Astronomy

Feb. 05, 2013 Rise Set
Actual Time 7:15 AM AST 6:03 PM AST
Civil Twilight 6:50 AM AST 6:28 PM AST
Nautical Twilight 6:21 AM AST 6:57 PM AST
Astronomical Twilight 5:52 AM AST 7:26 PM AST
Moon 2:28 AM AST (2/5) 1:07 PM AST (2/5)
Length of Visible Light 11h 38m
Length of Day
10h 47m
Waning Crescent, 30% of the Moon is Illuminated
Feb 5
Waning Crescent
Feb 10
New
Feb 17
First Quarter
Feb 25
Full
Mar 5
Last Quarter

Hourly Weather History & Observations

Time (AST) Temp. Windchill Dew Point Humidity Pressure Visibility Wind Dir Wind Speed Gust Speed Precip Events Conditions
12:00 AM 48 °F - 36 °F 51%  in 6 mi East 11.5 mph - -  
12:00 AM 48.2 °F - 35.6 °F 62% 30.24 in - East 11.5 mph - N/A   Clear
1:00 AM 46.4 °F 40.1 °F 32.0 °F 57% 30.21 in - ESE 15.0 mph - N/A   Clear
2:00 AM 44.6 °F 38.1 °F 35.6 °F 71% 30.21 in - ESE 13.8 mph - N/A   Clear
3:00 AM 43 °F - 36 °F 67%  in 6 mi ESE 13.8 mph - -  
3:00 AM 42.8 °F 35.8 °F 35.6 °F 76% 30.18 in - ESE 13.8 mph - N/A   Clear
4:00 AM 42.8 °F 35.8 °F 35.6 °F 76% 30.15 in - ESE 13.8 mph - N/A   Clear
5:00 AM 42.8 °F 35.1 °F 35.6 °F 76% 30.15 in - SE 16.1 mph - N/A   Clear
6:00 AM 41 °F - 36 °F 74%  in 6 mi SE 15.0 mph - -   Partly Cloudy
6:00 AM 41.0 °F 33.1 °F 35.6 °F 81% 30.15 in - SE 15.0 mph - N/A   Clear
7:00 AM 42.8 °F 35.8 °F 35.6 °F 76% 30.15 in - SE 13.8 mph - N/A   Clear
8:00 AM 46.4 °F 41.9 °F 35.6 °F 66% 30.15 in - ESE 9.2 mph - N/A   Clear
9:00 AM 50 °F - 36 °F 46%  in 6 mi ESE 11.5 mph - -   Mostly Cloudy
9:00 AM 50.0 °F - 35.6 °F 58% 30.15 in - ESE 11.5 mph - N/A   Clear
10:00 AM 55.4 °F - 35.6 °F 47% 30.15 in - SE 13.8 mph - N/A   Clear
11:00 AM 60.8 °F - 35.6 °F 39% 30.12 in - SSE 13.8 mph - N/A   Clear
12:00 PM 63 °F - 32 °F 20%  in 6 mi SSE 16.1 mph - -   Mostly Cloudy
12:00 PM 62.6 °F - 32.0 °F 32% 30.09 in - SSE 16.1 mph - N/A   Clear
1:00 PM 64.4 °F - 32.0 °F 30% 30.09 in - SSE 16.1 mph - N/A   Clear
2:00 PM 66.2 °F - 32.0 °F 28% 30.06 in - SSE 16.1 mph - N/A   Clear
3:00 PM 66 °F - 30 °F 16%  in 6 mi SSE 13.8 mph - -   Mostly Cloudy
3:00 PM 66.2 °F - 30.2 °F 26% 30.04 in - SSE 13.8 mph - N/A   Clear
4:00 PM 66.2 °F - 30.2 °F 26% 30.04 in - SSE 13.8 mph - N/A   Clear
5:00 PM 66.2 °F - 30.2 °F 26% 30.04 in - SE 9.2 mph - N/A   Clear
6:00 PM 63 °F - 32 °F 20%  in 6 mi SSE 9.2 mph - -   Mostly Cloudy
6:00 PM 62.6 °F - 32.0 °F 32% 30.04 in - SSE 9.2 mph - N/A   Clear
7:00 PM 60.8 °F - 33.8 °F 36% 30.04 in - SSE 9.2 mph - N/A   Clear
8:00 PM 59.0 °F - 33.8 °F 39% 30.04 in - SSE 9.2 mph - N/A   Clear
9:00 PM 57 °F - 36 °F 33%  in 6 mi SE 13.8 mph - -   Mostly Cloudy
9:00 PM 57.2 °F - 35.6 °F 44% 30.04 in - SE 13.8 mph - N/A   Clear
10:00 PM 55.4 °F - 33.8 °F 44% 30.01 in - ESE 17.3 mph - N/A   Clear
11:00 PM 53.6 °F - 33.8 °F 47% 30.01 in - SE 16.1 mph - N/A   Clear